Location: Oshawa
(43.9000°N, 78.8670°W)
Time: 18:43:36
(UTC-04:00)

SPOT 5 - Pass Details

Date: 24 June 2018
Orbit: 623 x 815 km, 98.4° (Epoch: 15 July)

Event Time Altitude Azimuth Distance (km) Brightness Sun altitude
Exits shadow 22:54:57 19° 177° (S) 1,783 4.4 -15.1°
Maximum altitude 22:58:41 70° 258° (WSW) 843 3.2 -15.5°
Drops below altitude 10° 23:04:00 10° 342° (NNW) 2,399 6.8 -16.0°
Sets 23:06:24 0° 345° (NNW) 3,345 7.8 -16.3°
